Showing default

SES MPOWER-F11, 100686

Orbit data source: Space-Track

SES MPOWER-F11, 100686 is a Luxembourger payload satellite that was launched on Sun, 13 Sep 2026 UTC launched from the Air Force Eastern Test Range (AFETR). Payload-class satellites include a variety of spacecraft equipped with specific instruments for various scientific and technological missions. These include communications satellites like Starlink; space stations such as the ISS; scientific satellites like the Hubble; Earth observation satellites from companies like Planet Labs, Umbra, and HawkEye 360; GPS; miniature CubeSats for education and research; and military/defense satellites.

Loading next visibility...
Identifier
100686, 2026-208A
Orbit
Active
Country
Flag of LULU / SES
Related business
None
Manufacturer
Unknown
Mission
Operational spacecraft
Bus & Motor
Unknown
Mass
Unknown
Launch date (UTC)
2026-09-13 (2 days ago)
Launch vehicle
Unknown
Launch site
Air Force Eastern Test Range (AFETR)
Object type
Payload
Rocket body
Debris
Shape & HBR
Unknown
Radar Cross Section
RCS unknown

Expand to show TLE details & history
Last TLE update: 13 hours ago

TLE from 13 hours ago
0 SES MPOWER-F11
1 A0686U 26208A   26257.87257888  .00023477  00000-0  16457-2 0  9991
2 A0686  16.8860 113.5846 3226446 185.2588 170.3394  8.86817560   100
Epoch: 2026-09-14T20:56Z
TLE epoch observation values (Epoch: 2026-09-14T20:56:30.815Z)
Latitude
-0.00001°
Longitude
165.60953°
Altitude
6,633.396 km
Speed
4.567 km/s
True Right ascension
07h 34m 20s
True Declination
0° 00' 00"
Sunlit
Object was in daylight at epoch
Visualization orbit readout
Latitude
Unknown
Longitude
Unknown
Altitude
Unknown
Speed
Unknown
Apparent Right ascension
Unknown
Apparent Declination
Unknown
Sunlit
N/A
Visualization observer readout
Local Sidereal Time
02:07:23
Azimuth
Unknown
Elevation
Unknown
Doppler factor
Unknown
Orbital elements
Apogee altitude
6,668.296 km
Perigee altitude
303.228 km
Semi-major axis
9,863.899 km
Eccentricity
0.32264
Inclination
16.886°
RAAN
113.5846°
Arg. of periapsis
185.2588°
True anomaly
174.76614°
Mean anomaly
170.3394°
Eccentric anomaly
172.69117°
Mean motion
2.21549 °/min
Orbital period
162.49 mins
BSTAR
0.0016457
Loading maneuver chart data...
Computing Atmospheric mass density...
Loading historical data...
Loading historical data...
Loading historical data...
Loading historical data...
Loading historical data...
Loading historical data...
Loading historical data...
Other satellites on launch #208 in the year 2026 (2026-09-13 UTC)

Documentation

Showing up to 5 results
|